Carmi, IL

1:08 PM CDT on June 25, 2017 (GMT -0500)
Carmi Municipal

Weather History for KCUL - February, 2014

Change the Weather History Date:

Monday, February 10, 2014

  Actual Average (KEHR) Record (KEHR)
Temperature  
Mean Temperature 14 °F -  
Max Temperature 21 °F 44 °F 70 °F (1965)
Min Temperature 7 °F 25 °F -3 °F (1979)
Degree Days  
Heating Degree Days 51    
Moisture  
Dew Point 6 °F    
Average Humidity 70    
Maximum Humidity 81    
Minimum Humidity 62    
Precipitation  
Precipitation 0.00 in - - ()
Sea Level Pressure  
Sea Level Pressure 30.41 in    
Wind  
Wind Speed 11 mph (NNW)    
Max Wind Speed 15 mph    
Max Gust Speed 18 mph    
Visibility 10 miles    
Events      
Averages and records for this station are not official NWS values.
T = Trace of Precipitation, MM = Missing Value Source: NWS Daily Summary

Daily Weather History Graph

Daily Weather History Graph

Search for Another Location

Airport or City:

Trip Planner

Search our weather history database for the weather conditions in past years. The results will help you decide how hot, cold, wet, or windy it might be!

Date:

Astronomy

Feb. 10, 2014 Rise Set
Actual Time 6:48 AM CST 5:25 PM CST
Civil Twilight 6:21 AM CST 5:52 PM CST
Nautical Twilight 5:49 AM CST 6:24 PM CST
Astronomical Twilight 5:19 AM CST 6:54 PM CST
Moon 1:56 PM CST (2/10) 3:39 AM CST (2/10)
Length of Visible Light 11h 31m
Length of Day
10h 37m
Waxing Gibbous, 85% of the Moon is Illuminated
Feb 10
Waxing Gibbous
Feb 14
Full
Feb 22
Last Quarter
Mar 1
New
Mar 8
First Quarter

Hourly Weather History & Observations

Time (CST) Temp. Windchill Dew Point Humidity Pressure Visibility Wind Dir Wind Speed Gust Speed Precip Events Conditions
12:15 AM 21.2 °F 9.5 °F 14.9 °F 77% 30.32 in 10.0 mi North 11.5 mph - N/A   Overcast
12:35 AM 21.2 °F 9.5 °F 14.7 °F 76% 30.33 in 10.0 mi North 11.5 mph - N/A   Overcast
12:55 AM 21.2 °F 10.9 °F 14.9 °F 77% 30.33 in 10.0 mi NNW 9.2 mph - N/A   Overcast
1:15 AM 21.0 °F 9.9 °F 14.9 °F 77% 30.33 in 10.0 mi NNW 10.4 mph - N/A   Overcast
1:35 AM 21.0 °F 9.9 °F 14.4 °F 75% 30.33 in 10.0 mi NNW 10.4 mph - N/A   Overcast
1:55 AM 20.8 °F 8.4 °F 14.5 °F 77% 30.32 in 10.0 mi North 12.7 mph - N/A   Overcast
2:15 AM 20.7 °F 9.5 °F 14.2 °F 76% 30.33 in 10.0 mi NNW 10.4 mph - N/A   Overcast
2:35 AM 20.7 °F 11.0 °F 14.0 °F 75% 30.33 in 10.0 mi North 8.1 mph - N/A   Overcast
2:55 AM 20.5 °F 10.0 °F 13.6 °F 75% 30.33 in 10.0 mi North 9.2 mph - N/A   Overcast
3:15 AM 20.3 °F 7.2 °F 12.0 °F 70% 30.33 in 10.0 mi North 13.8 mph - N/A   Overcast
3:35 AM 19.8 °F 7.1 °F 12.2 °F 72% 30.32 in 10.0 mi North 12.7 mph - N/A   Overcast
3:55 AM 19.4 °F 6.0 °F 12.0 °F 73% 30.35 in 10.0 mi North 13.8 mph - N/A   Overcast
4:15 AM 18.9 °F 5.9 °F 11.3 °F 72% 30.34 in 10.0 mi NNW 12.7 mph - N/A   Overcast
4:35 AM 18.5 °F 5.5 °F 12.4 °F 77% 30.36 in 10.0 mi NNW 12.7 mph - N/A   Overcast
4:55 AM 18.0 °F 6.1 °F 12.0 °F 78% 30.37 in 10.0 mi NNW 10.4 mph - N/A   Overcast
5:15 AM 17.4 °F 2.9 °F 12.0 °F 79% 30.38 in 10.0 mi NNW 15.0 mph - N/A   Overcast
5:35 AM 16.5 °F 3.0 °F 11.3 °F 80% 30.38 in 10.0 mi North 12.7 mph - N/A   Overcast
5:55 AM 15.8 °F 2.7 °F 10.9 °F 81% 30.38 in 10.0 mi North 11.5 mph - N/A   Mostly Cloudy
6:15 AM 14.9 °F -0.3 °F 9.7 °F 80% 30.38 in 10.0 mi NNW 15.0 mph - N/A   Overcast
6:35 AM 14.0 °F 0.5 °F 8.1 °F 77% 30.39 in 10.0 mi North 11.5 mph 18.4 mph N/A   Overcast
6:55 AM 13.6 °F 1.6 °F 7.9 °F 78% 30.40 in 10.0 mi NNW 9.2 mph - N/A   Scattered Clouds
7:15 AM 13.1 °F -0.7 °F 7.3 °F 78% 30.41 in 10.0 mi NNW 11.5 mph - N/A   Scattered Clouds
7:35 AM 12.9 °F -0.9 °F 6.4 °F 75% 30.42 in 10.0 mi NNW 11.5 mph - N/A   Scattered Clouds
7:55 AM 12.6 °F -0.6 °F 6.1 °F 75% 30.42 in 10.0 mi NNW 10.4 mph - N/A   Mostly Cloudy
8:15 AM 12.4 °F -0.8 °F 5.5 °F 74% 30.43 in 10.0 mi NNW 10.4 mph - N/A   Scattered Clouds
8:35 AM 12.6 °F -0.6 °F 5.7 °F 74% 30.43 in 10.0 mi NNW 10.4 mph - N/A   Clear
8:55 AM 12.4 °F -0.8 °F 5.7 °F 75% 30.44 in 10.0 mi NNW 10.4 mph - N/A   Clear
9:15 AM 12.2 °F -1.0 °F 5.2 °F 73% 30.44 in 10.0 mi NNW 10.4 mph - N/A   Clear
9:35 AM 12.4 °F 0.9 °F 4.8 °F 72% 30.45 in 10.0 mi NW 8.1 mph - N/A   Clear
9:55 AM 12.6 °F 0.2 °F 4.6 °F 71% 30.46 in 10.0 mi NNW 9.2 mph - N/A   Clear
10:15 AM 13.1 °F 0.9 °F 4.8 °F 70% 30.46 in 10.0 mi NNW 9.2 mph - N/A   Clear
10:35 AM 13.3 °F 0.3 °F 4.6 °F 68% 30.46 in 10.0 mi NNW 10.4 mph - N/A   Clear
10:55 AM 13.8 °F 1.8 °F 4.6 °F 67% 30.45 in 10.0 mi NNW 9.2 mph - N/A   Clear
11:15 AM 13.5 °F 2.2 °F 4.8 °F 68% 30.45 in 10.0 mi NNW 8.1 mph - N/A   Clear
11:35 AM 13.3 °F 2.0 °F 5.0 °F 70% 30.45 in 10.0 mi NNW 8.1 mph - N/A   Clear
11:55 AM 14.5 °F 3.6 °F 5.2 °F 66% 30.44 in 10.0 mi NNW 8.1 mph - N/A   Clear
12:15 PM 14.9 °F 5.0 °F 5.9 °F 68% 30.44 in 10.0 mi North 6.9 mph - N/A   Clear
12:35 PM 14.9 °F 2.3 °F 5.9 °F 68% 30.43 in 10.0 mi North 10.4 mph - N/A   Clear
12:55 PM 15.6 °F 4.9 °F 6.4 °F 67% 30.42 in 10.0 mi North 8.1 mph - N/A   Clear
1:15 PM 15.8 °F 3.4 °F 6.3 °F 66% 30.41 in 10.0 mi North 10.4 mph - N/A   Clear
1:35 PM 16.3 °F 4.1 °F 6.1 °F 64% 30.41 in 10.0 mi North 10.4 mph - N/A   Clear
1:55 PM 16.5 °F 3.6 °F 6.1 °F 64% 30.41 in 10.0 mi North 11.5 mph - N/A   Clear
2:15 PM 16.5 °F 5.1 °F 5.4 °F 62% 30.41 in 10.0 mi North 9.2 mph - N/A   Clear
2:35 PM 16.5 °F 4.3 °F 5.5 °F 62% 30.41 in 10.0 mi NNW 10.4 mph - N/A   Clear
2:55 PM 16.5 °F 3.6 °F 5.9 °F 63% 30.40 in 10.0 mi North 11.5 mph - N/A   Clear
3:15 PM 16.5 °F 4.3 °F 5.5 °F 62% 30.40 in 10.0 mi North 10.4 mph - N/A   Clear
3:35 PM 16.3 °F 4.1 °F 5.4 °F 62% 30.42 in 10.0 mi NNW 10.4 mph - N/A   Clear
3:55 PM 15.8 °F 4.2 °F 5.4 °F 63% 30.41 in 10.0 mi NNW 9.2 mph - N/A   Clear
4:15 PM 15.8 °F 4.2 °F 5.2 °F 63% 30.42 in 10.0 mi NNW 9.2 mph - N/A   Clear
4:35 PM 15.1 °F 1.8 °F 4.8 °F 64% 30.43 in 10.0 mi NNW 11.5 mph - N/A   Clear
4:55 PM 14.5 °F 1.9 °F 4.5 °F 64% 30.43 in 10.0 mi NNW 10.4 mph - N/A   Clear
5:15 PM 13.5 °F 0.5 °F 4.5 °F 67% 30.43 in 10.0 mi North 10.4 mph - N/A   Clear
5:35 PM 13.1 °F 0.1 °F 3.6 °F 66% 30.44 in 10.0 mi North 10.4 mph - N/A   Clear
5:55 PM 12.9 °F -1.6 °F 3.9 °F 67% 30.45 in 10.0 mi NNW 12.7 mph - N/A   Clear
6:15 PM 12.4 °F 0.0 °F 3.7 °F 68% 30.45 in 10.0 mi North 9.2 mph - N/A   Clear
6:35 PM 12.0 °F 0.5 °F 2.8 °F 67% 30.44 in 10.0 mi North 8.1 mph - N/A   Clear
6:55 PM 11.8 °F -2.3 °F 2.3 °F 66% 30.44 in 10.0 mi North 11.5 mph - N/A   Clear
7:15 PM 11.3 °F -3.6 °F 2.1 °F 67% 30.44 in 10.0 mi North 12.7 mph - N/A   Clear
7:35 PM 10.9 °F -3.4 °F 1.4 °F 65% 30.45 in 10.0 mi NNW 11.5 mph - N/A   Clear
7:55 PM 10.2 °F -2.7 °F 1.0 °F 66% 30.46 in 10.0 mi North 9.2 mph - N/A   Clear
8:15 PM 9.5 °F -3.5 °F 0.5 °F 67% 30.45 in 10.0 mi North 9.2 mph - N/A   Clear
8:35 PM 9.0 °F -4.2 °F 0.1 °F 67% 30.46 in 10.0 mi North 9.2 mph - N/A   Clear
9:00 PM 8.4 °F -2.8 °F 0.1 °F 69% 30.47 in 10.0 mi NNW 6.9 mph - N/A   Clear
9:15 PM 8.4 °F -3.9 °F -0.0 °F 68% 30.47 in 10.0 mi NNW 8.1 mph - N/A   Clear
9:35 PM 8.6 °F -3.7 °F -0.0 °F 68% 30.47 in 10.0 mi North 8.1 mph - N/A   Clear
9:55 PM 8.6 °F -6.3 °F -0.0 °F 68% 30.46 in 10.0 mi North 11.5 mph - N/A   Clear
10:15 PM 8.4 °F -5.7 °F -0.4 °F 67% 30.47 in 10.0 mi North 10.4 mph - N/A   Clear
10:18 PM 8.6 °F -4.7 °F -0.4 °F 67% 30.47 in 10.0 mi North 9.2 mph - N/A   Clear
10:35 PM 8.4 °F -3.9 °F -0.2 °F 68% 30.47 in 10.0 mi NNW 8.1 mph - N/A   Clear
10:55 PM 8.2 °F -5.1 °F -0.6 °F 67% 30.48 in 10.0 mi NNW 9.2 mph - N/A   Clear
11:15 PM 8.1 °F -6.2 °F -0.6 °F 68% 30.46 in 10.0 mi North 10.4 mph - N/A   Clear
11:35 PM 7.7 °F -6.6 °F -0.4 °F 70% 30.46 in 10.0 mi North 10.4 mph - N/A   Clear
11:55 PM 7.5 °F -5.0 °F -0.4 °F 70% 30.46 in 10.0 mi North 8.1 mph - N/A   Clear